Retour au catalogue

STARLINK-33847

ActifCommunicationsVLEO
NORAD 63685·PAYLOAD·🇺🇸 United States

Lancé Apr 28, 2025 depuis Cape Canaveral Space Force Station

Loading…

Prochains Passages (prochaines 24 heures)

TLE

FraisSource: CelesTrak SupGP

Époque: Sep 14, 2026, 21:08 UTC

1 63685C 25085X   26257.88104167  .00059346  00000+0  21494-2 0  2570
2 63685  43.0024  42.4871 0001703 273.9029  97.2107 15.27550462    16

Suivez STARLINK-33847 en temps réel avec AllMySat

Download on the App Store